Volver al catálogo

FORMOSAT 3F

ActivoMeteoLEO
NORAD 29052·PAYLOAD·🇹🇼 Taiwan

Lanzado Apr 15, 2006 desde Vandenberg Space Force Base

Loading…

Próximos Pases (próximas 24 horas)

TLE

ActualizadoSource: Space-Track

Época: Sep 14, 2026, 02:58 UTC

1 29052U 06011F   26257.12402095  .00000327  00000-0  13685-3 0  9999
2 29052  72.0323 200.4127 0038700   2.8523 357.2828 14.31674926 65516

Sigue FORMOSAT 3F en tiempo real con AllMySat

Download on the App Store